Regional Weather Roundup
Issued by NWS Goodland, KS

Home | Current Version | Previous Version | Text Only | Print | Product List | Glossary Off
Versions: 1 2 3 4 5 6 7 8 9 10 11 12 13 14 15 16 17 18 19 20 21 22 23 24 25 26 27 28 29 30 31 32 33 34 35 36 37 38 39 40 41 42 43 44 45 46 47 48 49 50

000
ASUS43 KGLD 082359
RWRGLD

GOODLAND FORECAST AREA HOURLY WEATHER ROUNDUP
NATIONAL WEATHER SERVICE GOODLAND KS
500 PM MST THU DEC 08 2016

...OFFICIAL OBSERVATIONS...

CITY           SKY/WX    TMP DP  RH WIND       PRES   REMARKS
GOODLAND KS    CLOUDY     7   0  73 SE9       30.48F
HILL CITY KS   CLEAR     11   0  61 N5        30.61S
IMPERIAL NEB   CLOUDY     7  -2  66 SE5       30.51S
MCCOOK NEB     CLOUDY    14   3  61 SW5       30.57S
AKRON CO       CLOUDY     6  -1  73 SE9       30.36S
BURLINGTON CO  CLOUDY    13   2  61 S9        30.44R
LIMON CO       CLOUDY    10   1  67 S10       30.32S WCI  -4
$$

...UNOFFICIAL OBSERVATIONS...

CITY           SKY/WX    TMP DP  RH WIND       PRES   REMARKS
COLBY KS       CLEAR     12   5  73 CALM      30.54F
LENORA KS        N/A     14  32 100 MISG        N/A
NORTON KS      CLEAR     12   0  57 W3        30.58F
SHARON SPRINGS   N/A     11   3  68 CALM        N/A
TRENTON NEB      N/A     10  32 100 CALM        N/A
KIT CARSON CO    N/A     14  -1  52 MISG        N/A
YUMA CO        FAIR       3  -4  72 E7        30.42R
$$



USA.gov is the U.S. government's official web portal to all federal, state and local government web resources and services.